Wind_Speed
10 8 7 4 7 7 6 10 11 15 12 11 13 17 21 20 20 16 20 18 22 22 21 25 23 21 21 20 20 19 19 20 20 17 16 16 15 17 18 17 15 15 16
6 5 6 6 7 8 11 14 15 12 15 18 20 22 20 22 19 16 19 19 19 18 18 18 22 24 24 24 24 23 21 19 20 21 20 18 17 17 18 20 19 18 17
14 11 7 10 12 17 15 15 16 16 20 21 22 19 18 20 18 16 21 15 18 16 16 19 18 24 26 28 21 19 21 22 22 20 21 22 20 19 18 19 22 22 21
7 7 7 10 13 13 13 15 15 17 17 19 19 18 21 25 17 20 19 15 15 16 18 18 20 22 24 24 21 21 22 19 19 21 19 18 18 24 23 22 22 24 25
5 6 9 11 8 4 9 13 15 20 24 24 22 18 22 21 18 20 18 13 17 14 12 18 20 21 18 18 20 24 24 19 22 19 16 17 20 25 27 28 26 25 25
5 4 7 9 9 6 11 16 20 21 21 18 20 20 20 19 15 18 15 13 14 12 13 18 19 18 17 21 21 21 19 21 19 18 20 22 21 22 23 26 28 27 27
3 6 4 6 10 6 9 12 17 17 17 16 22 27 21 16 16 14 10 12 12 16 16 15 20 24 26 22 18 18 24 21 24 27 24 24 21 21 22 22 26 28 28
3 3 9 8 9 14 14 12 16 19 20 15 22 22 22 26 17 18 21 22 17 21 22 20 24 22 23 20 23 22 23 24 25 25 22 21 21 19 19 21 22 25 28
5 8 9 12 13 12 12 16 18 18 17 21 16 21 25 19 28 23 20 21 22 21 19 20 21 20 22 23 27 19 25 27 29 25 22 22 21 21 20 18 19 19 23
9 8 8 12 15 17 18 16 16 20 26 21 21 18 19 22 23 26 20 20 21 20 21 21 22 21 25 27 26 24 28 30 29 28 24 24 24 21 20 19 18 18 19
10 8 9 11 13 15 16 20 22 22 21 19 22 24 29 27 22 20 23 21 25 23 22 23 24 25 24 23 25 27 25 23 28 29 29 27 26 24 23 20 19 19 18
8 11 13 15 18 20 22 20 20 23 25 28 28 25 23 20 20 19 22 23 24 26 26 29 28 27 27 25 25 25 29 30 28 28 29 27 28 27 26 24 22 21 20
11 15 17 21 21 18 19 20 22 24 26 26 25 27 22 23 17 19 19 22 24 30 34 28 25 25 28 29 28 27 27 30 32 31 29 29 28 27 27 27 26 24 22
15 17 17 14 17 17 20 21 22 22 23 23 26 24 22 17 20 19 17 18 24 32 30 34 25 29 28 30 24 29 29 30 33 34 35 35 37 36 33 33 30 28 24
12 12 15 18 18 19 21 21 21 21 22 23 24 23 22 21 18 18 20 19 23 30 33 29 33 28 24 28 31 34 34 33 33 34 35 36 36 34 32 30 32 30 26
13 13 14 16 17 18 18 18 19 20 22 25 22 15 11 14 16 17 18 21 24 27 33 30 29 29 32 33 36 39 32 35 37 34 34 30 31 32 31 30 27 27 28
13 12 14 16 16 15 17 21 23 19 17 15 12 11 14 15 15 18 20 20 23 23 29 33 33 32 32 34 36 33 32 34 32 30 30 31 31 32 31 32 30 28 29
12 13 15 15 14 17 19 19 21 15 14 12 15 15 14 16 17 19 22 25 27 30 32 32 31 31 29 33 29 29 28 29 30 29 30 28 27 30 30 26 26 30 28
14 15 16 15 15 18 19 17 15 16 14 12 12 14 15 17 22 22 23 26 29 27 24 28 33 34 30 28 30 28 31 29 28 26 25 26 26 28 28 28 30 28 25
17 17 15 14 17 18 19 17 12 10 9 11 13 16 18 20 20 23 27 31 25 24 27 28 29 29 29 29 26 30 27 29 28 29 27 26 26 28 25 25 22 21 24
20 17 15 15 19 21 14 13 13 16 16 17 17 18 16 18 23 24 23 25 25 27 29 27 27 29 29 29 28 28 32 29 29 26 24 24 26 26 27 27 24 20 23
16 16 18 17 19 16 19 19 21 18 17 18 15 16 17 16 17 20 19 21 24 27 27 24 29 32 32 29 27 31 31 32 32 30 27 28 25 27 25 21 19 10 20
18 19 18 19 21 20 21 20 19 17 17 17 14 15 18 14 19 21 25 27 27 20 20 23 27 25 23 25 33 32 29 26 28 29 27 31 26 26 25 21 19 14 11
19 19 20 20 20 19 22 21 19 18 18 16 13 17 16 16 23 26 25 28 26 22 16 16 23 27 28 31 20 23 25 27 27 24 23 27 26 27 22 20 21 19 21
20 20 21 17 19 19 21 20 19 18 21 18 17 14 15 18 23 25 27 27 24 21 13 18 26 23 17 17 18 25 25 29 30 31 28 22 22 24 23 20 18 19 22
20 18 18 18 17 19 21 19 19 22 21 19 14 14 17 17 22 24 26 24 23 20 23 22 17 18 15 16 17 18 20 23 25 31 25 19 21 17 21 10 9 16 16
Wind_Direction
208 211 207 204 248 252 260 264 290 315 338 323 327 324 321 317 325 326 321 312 314 318 321 321 322 325 320 315 309 304 300 299 298 294 288 280 268 262 267 270 267 264 261
225 231 234 228 251 268 290 297 311 326 310 318 315 320 315 316 315 321 306 314 313 316 320 322 322 324 326 324 322 313 305 298 293 293 292 287 283 272 265 261 262 262 262
270 253 260 284 275 293 301 304 310 308 315 319 324 325 321 309 315 312 304 310 298 299 315 319 318 322 320 322 332 340 335 324 306 293 289 288 282 278 269 264 259 258 259
254 259 267 273 287 295 314 307 310 313 324 322 326 332 316 305 325 313 310 302 285 280 306 307 321 322 325 328 332 331 333 329 326 325 317 299 300 274 272 264 260 257 254
231 261 273 276 292 310 293 301 303 322 321 325 325 316 306 322 312 297 307 292 297 291 286 294 295 301 321 319 325 324 324 317 322 323 314 316 308 283 272 272 265 260 257
249 270 294 294 299 294 283 299 313 320 323 322 319 312 317 311 316 326 308 289 276 281 293 307 310 317 306 312 316 325 316 306 309 316 320 317 311 310 295 274 275 266 260
220 181 211 307 314 267 291 313 310 312 318 324 314 325 323 330 303 316 304 313 318 311 288 296 319 313 309 306 316 317 311 304 303 309 314 317 314 306 308 300 273 274 265
215 281 257 252 254 286 310 307 303 314 310 309 331 322 326 317 321 291 305 315 314 309 317 308 309 314 313 307 309 302 307 317 311 309 313 312 314 311 305 304 301 271 277
236 258 285 288 292 293 290 295 305 310 299 303 308 311 314 309 313 313 305 303 307 307 316 312 309 306 310 307 315 312 302 307 304 306 311 315 313 306 304 306 305 301 294
269 278 267 282 296 298 302 305 297 288 293 299 298 297 290 300 312 316 309 301 298 302 309 316 320 313 306 305 311 304 303 301 298 305 308 308 307 305 302 301 304 308 302
301 310 306 298 296 295 295 292 295 293 286 283 289 292 299 282 289 295 308 308 302 295 298 306 308 313 314 309 304 304 308 302 304 306 307 305 303 297 298 299 303 307 305
247 268 260 263 268 276 287 284 284 289 284 287 295 293 294 279 279 296 293 298 302 293 294 299 304 301 305 306 306 300 297 299 299 297 296 298 296 293 290 290 295 296 298
253 258 266 272 285 291 293 292 287 292 292 289 284 288 285 282 286 277 279 292 294 291 302 306 303 302 306 306 306 300 299 297 297 298 294 293 293 289 283 284 284 284 287
253 266 282 289 296 294 289 287 289 292 294 288 287 290 289 283 275 276 279 284 298 299 302 305 308 305 301 304 291 299 299 294 293 291 287 286 287 287 286 281 281 281 282
264 270 269 289 294 293 293 294 293 295 293 287 287 296 290 280 278 273 279 286 292 297 300 301 305 306 301 296 297 295 295 293 293 292 289 290 291 288 283 281 273 273 277
260 273 291 296 297 299 310 310 295 284 282 292 301 299 291 282 278 284 293 296 296 297 296 303 303 301 303 297 300 298 289 291 292 293 292 294 291 292 287 282 273 271 277
268 282 294 296 300 306 295 288 285 295 299 298 285 288 289 295 307 302 304 303 298 304 303 302 302 304 299 303 302 300 300 300 298 298 293 291 288 286 284 281 272 269 276
270 288 293 297 298 292 292 298 304 300 286 285 293 296 303 307 300 297 297 295 289 287 294 304 303 305 308 306 309 306 305 300 302 302 296 296 291 290 287 284 282 268 276
273 284 288 290 295 291 304 298 296 291 293 293 301 305 304 297 297 299 288 287 294 299 296 299 299 300 305 307 308 308 307 307 302 304 299 299 300 298 299 287 268 264 270
274 286 284 283 283 275 292 281 285 288 289 302 302 301 301 308 294 291 295 303 310 304 307 303 300 305 309 313 313 312 313 308 311 303 301 300 295 290 292 293 284 270 268
277 288 287 287 281 290 289 267 253 276 271 283 294 297 297 293 296 301 305 314 304 307 311 308 305 309 312 316 313 311 309 318 313 313 307 304 305 313 288 287 275 261 268
291 286 283 283 283 274 280 278 280 287 289 301 300 290 290 300 303 306 302 294 304 307 308 309 310 307 306 304 312 313 310 312 312 308 315 303 309 308 313 300 271 285 245
282 284 289 287 278 278 281 275 280 284 296 305 293 293 295 298 288 289 289 296 303 301 294 299 307 306 309 308 308 306 306 305 300 305 311 303 304 299 302 297 305 304 304
284 281 286 286 280 275 279 279 276 284 298 302 286 284 292 294 285 299 307 312 315 310 305 305 298 294 298 304 306 310 307 304 306 307 312 300 304 300 308 289 278 277 279
282 280 286 284 285 274 274 274 273 283 296 297 285 293 290 290 292 304 310 315 318 322 311 289 290 295 304 307 313 309 309 305 299 309 310 301 303 305 306 294 293 282 274
278 283 279 270 269 278 281 277 278 289 292 296 295 281 288 291 294 303 311 315 319 324 324 328 334 334 324 321 316 309 315 314 316 316 313 299 297 309 318 319 311 303 270
Height
1572 1571 1572 1575 1575 1575 1574 1573 1574 1575 1572 1571 1570 1568 1567 1565 1564 1563 1560 1555 1556 1553 1549 1550 1548 1544 1543 1542 1541 1540 1539 1538 1537 1537 1537 1536 1537 1538 1537 1537 1536 1536 1536
1570 1572 1569 1571 1573 1573 1572 1572 1570 1571 1570 1567 1566 1565 1564 1562 1561 1560 1557 1554 1553 1551 1548 1547 1546 1542 1540 1539 1537 1536 1535 1535 1534 1533 1532 1532 1531 1532 1532 1532 1532 1532 1532
1568 1569 1568 1570 1571 1570 1569 1569 1568 1568 1568 1565 1562 1562 1561 1559 1557 1556 1554 1553 1550 1548 1546 1544 1543 1541 1539 1537 1535 1533 1531 1530 1529 1529 1528 1527 1526 1526 1526 1526 1526 1527 1528
1565 1567 1567 1568 1569 1568 1567 1566 1566 1565 1563 1561 1558 1559 1557 1555 1553 1553 1552 1551 1549 1546 1544 1542 1540 1537 1536 1534 1533 1532 1530 1529 1526 1525 1523 1522 1521 1520 1520 1521 1521 1521 1521
1564 1565 1565 1565 1567 1567 1566 1564 1563 1562 1560 1557 1555 1554 1552 1551 1550 1548 1548 1547 1545 1543 1542 1539 1537 1535 1534 1533 1531 1529 1529 1526 1524 1523 1519 1519 1517 1515 1515 1514 1516 1516 1515
1563 1563 1563 1564 1565 1565 1564 1563 1560 1558 1556 1553 1551 1549 1548 1549 1548 1546 1544 1545 1541 1539 1538 1536 1533 1532 1530 1529 1528 1528 1525 1524 1522 1518 1516 1515 1514 1512 1509 1509 1508 1509 1510
1561 1562 1564 1563 1562 1563 1562 1560 1557 1555 1553 1551 1547 1545 1544 1544 1544 1544 1541 1538 1537 1536 1534 1532 1531 1529 1526 1525 1524 1524 1522 1519 1517 1515 1513 1511 1510 1509 1506 1504 1502 1502 1504
1560 1560 1561 1562 1561 1560 1559 1557 1555 1552 1550 1549 1547 1544 1540 1539 1540 1537 1536 1535 1534 1532 1531 1529 1528 1526 1523 1521 1519 1521 1517 1515 1513 1510 1508 1507 1505 1504 1502 1501 1499 1497 1496
1558 1558 1558 1557 1557 1556 1554 1553 1552 1550 1547 1546 1547 1545 1540 1536 1534 1535 1534 1532 1530 1529 1527 1526 1524 1522 1520 1518 1517 1516 1514 1511 1507 1505 1504 1502 1501 1500 1498 1496 1495 1493 1491
1555 1556 1556 1555 1553 1552 1551 1550 1549 1547 1545 1542 1542 1541 1539 1536 1531 1525 1528 1529 1527 1525 1525 1522 1520 1518 1516 1515 1513 1512 1509 1506 1502 1500 1499 1499 1497 1496 1494 1492 1490 1488 1487
1555 1554 1553 1552 1551 1549 1548 1547 1545 1544 1541 1539 1537 1535 1534 1532 1530 1526 1519 1521 1522 1523 1521 1518 1515 1514 1513 1512 1510 1508 1505 1500 1497 1494 1492 1492 1491 1491 1489 1488 1486 1484 1483
1554 1553 1550 1548 1546 1545 1544 1542 1541 1539 1537 1536 1534 1530 1529 1528 1527 1525 1523 1520 1518 1516 1515 1513 1513 1510 1508 1506 1505 1503 1500 1496 1493 1490 1488 1486 1485 1485 1484 1482 1481 1480 1479
1549 1547 1545 1543 1542 1541 1539 1538 1536 1534 1532 1531 1528 1525 1523 1522 1522 1521 1519 1516 1513 1510 1509 1509 1507 1505 1503 1501 1499 1497 1493 1490 1486 1483 1482 1479 1478 1477 1477 1476 1475 1474 1473
1544 1543 1542 1539 1538 1536 1535 1533 1531 1530 1527 1525 1523 1520 1519 1518 1517 1516 1515 1513 1509 1505 1503 1501 1501 1499 1498 1495 1491 1489 1486 1483 1480 1477 1474 1472 1470 1469 1468 1467 1467 1466 1466
1540 1539 1537 1535 1533 1532 1530 1528 1526 1525 1524 1520 1517 1515 1514 1513 1512 1511 1511 1510 1508 1501 1496 1496 1494 1494 1491 1487 1483 1481 1478 1474 1471 1469 1466 1464 1462 1459 1458 1457 1458 1458 1457
1536 1534 1532 1530 1529 1528 1526 1525 1522 1519 1517 1514 1513 1511 1511 1510 1508 1507 1506 1506 1504 1500 1492 1492 1489 1487 1484 1479 1475 1472 1469 1466 1463 1461 1459 1457 1454 1452 1450 1449 1449 1449 1449
1532 1530 1528 1527 1525 1525 1522 1519 1516 1514 1512 1510 1509 1508 1506 1506 1505 1504 1501 1500 1497 1495 1488 1483 1482 1480 1475 1471 1468 1465 1462 1459 1456 1454 1452 1449 1447 1444 1442 1441 1441 1442 1442
1528 1525 1524 1522 1522 1520 1517 1514 1512 1510 1508 1505 1503 1503 1503 1502 1501 1499 1497 1494 1490 1487 1484 1478 1475 1471 1469 1466 1463 1460 1457 1454 1451 1448 1444 1442 1439 1437 1435 1434 1434 1435 1435
1522 1520 1518 1517 1517 1514 1513 1512 1510 1509 1507 1506 1504 1500 1499 1498 1496 1494 1490 1488 1485 1482 1479 1474 1468 1466 1463 1461 1457 1454 1451 1447 1445 1442 1439 1437 1434 1431 1428 1427 1426 1427 1427
1518 1516 1514 1513 1511 1508 1508 1506 1505 1504 1503 1502 1501 1500 1495 1493 1491 1489 1486 1483 1479 1476 1472 1468 1464 1460 1458 1456 1453 1449 1445 1442 1439 1436 1433 1431 1428 1425 1422 1420 1419 1419 1420
1513 1511 1510 1509 1506 1503 1502 1500 1499 1499 1497 1496 1496 1495 1492 1489 1487 1484 1482 1478 1474 1471 1468 1464 1460 1457 1453 1450 1448 1445 1440 1437 1433 1431 1427 1425 1422 1419 1416 1414 1412 1412 1413
1511 1510 1508 1505 1502 1500 1498 1497 1498 1496 1494 1493 1491 1489 1487 1485 1484 1480 1476 1474 1471 1467 1464 1461 1456 1453 1449 1447 1444 1441 1437 1433 1427 1425 1423 1418 1418 1414 1412 1409 1405 1405 1406
1506 1504 1503 1502 1499 1496 1494 1493 1492 1492 1488 1488 1487 1485 1483 1482 1478 1476 1473 1470 1467 1463 1461 1458 1453 1449 1445 1443 1440 1436 1432 1429 1424 1420 1419 1412 1412 1409 1408 1406 1403 1404 1403
1501 1500 1498 1496 1494 1490 1488 1488 1488 1487 1483 1483 1483 1481 1479 1477 1472 1471 1468 1464 1460 1456 1454 1453 1450 1444 1441 1438 1436 1433 1428 1424 1420 1416 1415 1410 1408 1404 1403 1401 1401 1401 1401
1495 1493 1492 1490 1489 1487 1484 1482 1483 1480 1480 1478 1477 1476 1474 1472 1468 1467 1463 1459 1454 1451 1449 1446 1443 1439 1436 1434 1432 1428 1424 1420 1414 1412 1410 1408 1404 1401 1398 1395 1396 1396 1396
1489 1488 1486 1485 1484 1482 1481 1480 1479 1475 1474 1474 1472 1471 1469 1467 1464 1462 1458 1454 1450 1447 1443 1439 1436 1434 1432 1430 1428 1426 1422 1418 1414 1408 1406 1404 1401 1400 1396 1393 1392 1391 1389